EW4711 Weather Reports


Display with metric or nautical units.
time (UTC)temp
F
wind
direction
speed
MPH
gust
MPH
rain 1hr
in
rain 24hr
in
rain mn
in
humidity
%
barometer
mb
20260502215604 43 288 5.0 12.0 0.00 0.00 0.00 73 1014.2
20260502215103 43 295 6.0 12.0 0.00 0.00 0.00 73 1014.3
20260502214604 43 298 6.0 15.0 0.00 0.00 0.00 73 1014.3
20260502214104 43 284 4.0 10.0 0.00 0.00 0.00 72 1014.3
20260502213603 44 262 3.0 8.0 0.00 0.00 0.00 72 1014.2
20260502213104 44 287 5.0 9.0 0.00 0.00 0.00 71 1014.1
20260502212603 44 272 4.0 9.0 0.00 0.00 0.00 70 1014.1
20260502211604 44 309 5.0 12.0 0.00 0.00 0.00 68 1014.1
20260502211103 44 1 3.0 8.0 0.00 0.00 0.00 69 1014.0
20260502210603 44 316 1.0 3.0 0.00 0.00 0.00 71 1014.1
20260502210104 44 313 1.0 3.0 0.00 0.00 0.00 73 1014.1
20260502205603 44 243 4.0 7.0 0.00 0.00 0.00 72 1014.0
20260502205103 43 260 2.0 3.0 0.00 0.00 0.00 72 1014.1
20260502204604 44 259 4.0 9.0 0.00 0.00 0.00 72 1014.1
20260502204103 44 295 3.0 9.0 0.00 0.00 0.00 72 1014.1
20260502203603 44 298 4.0 9.0 0.00 0.00 0.00 71 1014.1
20260502203103 44 295 5.0 13.0 0.00 0.00 0.00 70 1014.2
20260502202104 44 292 4.0 9.0 0.00 0.00 0.00 71 1014.1
20260502201603 45 265 3.0 12.0 0.00 0.00 0.00 70 1014.2
20260502201103 45 269 3.0 10.0 0.00 0.00 0.00 70 1014.3
20260502200603 45 273 4.0 10.0 0.00 0.00 0.00 69 1014.3
20260502195603 45 278 3.0 8.0 0.00 0.00 0.00 65 1014.5
20260502195103 46 284 3.0 9.0 0.00 0.00 0.00 64 1014.5
20260502194603 46 341 6.0 14.0 0.00 0.00 0.00 63 1014.5
20260502194104 47 305 3.0 10.0 0.00 0.00 0.00 61 1014.5
20260502193603 47 319 6.0 12.0 0.00 0.00 0.00 62 1014.5
20260502192603 48 327 5.0 9.0 0.00 0.00 0.00 63 1014.5
20260502192103 47 310 6.0 10.0 0.00 0.00 0.00 62 1014.6
20260502191604 47 318 7.0 14.0 0.00 0.00 0.00 63 1014.6
20260502191103 48 338 7.0 12.0 0.00 0.00 0.00 64 1014.6
20260502190604 47 337 3.0 12.0 0.00 0.00 0.00 68 1014.6
20260502190103 47 325 5.0 12.0 0.00 0.00 0.00 64 1014.6
20260502185103 45 13 3.0 10.0 0.00 0.00 0.00 68 1014.6
20260502184604 45 0 6.0 12.0 0.00 0.00 0.00 67 1014.7
20260502183604 46 348 2.0 7.0 0.00 0.00 0.00 70 1014.6
20260502182606 46 315 9.0 16.0 0.00 0.00 0.00 65 1014.7
20260502182103 46 318 5.0 12.0 0.00 0.00 0.00 66 1014.6
20260502181604 46 358 6.0 13.0 0.00 0.00 0.00 68 1014.7
20260502181104 46 304 5.0 12.0 0.00 0.00 0.00 67 1014.8
20260502180603 45 309 7.0 12.0 0.00 0.00 0.00 69 1014.8
20260502180104 45 333 5.0 16.0 0.00 0.00 0.00 68 1014.8
20260502170104 47 323 5.0 12.0 0.00 0.01 0.00 74 1014.5
20260502163604 45 351 10.0 15.0 0.00 0.02 0.00 71 1014.8
20260502163103 46 307 3.0 8.0 0.00 0.02 0.00 72 1014.8
20260502162603 44 294 6.0 10.0 0.00 0.03 0.00 72 1014.8
20260502162103 44 25 7.0 14.0 0.00 0.03 0.00 68 1014.8
20260502161603 46 302 7.0 15.0 0.00 0.03 0.00 70 1014.8
20260502161103 46 14 4.0 12.0 0.00 0.03 0.00 70 1014.8
20260502160604 46 344 5.0 12.0 0.00 0.04 0.00 69 1014.8
20260502160106 45 313 6.0 12.0 0.00 0.04 0.00 72 1014.8
20260502152104 44 343 5.0 12.0 0.00 0.05 0.00 67 1014.7
20260502151104 44 338 6.0 12.0 0.00 0.05 0.00 67 1014.7
20260502150605 43 347 6.0 13.0 0.00 0.05 0.00 63 1014.7
20260502130605 43 305 5.0 12.0 0.00 0.05 0.00 72 1015.3
20260502130104 41 316 6.0 12.0 0.00 0.05 0.00 71 1015.2
20260502123604 40 320 5.0 10.0 0.00 0.05 0.00 77 1015.2
20260502123103 40 350 5.0 13.0 0.00 0.05 0.00 78 1015.2
20260502122603 40 331 7.0 12.0 0.00 0.05 0.00 77 1015.1
20260502121604 39 341 4.0 12.0 0.00 0.05 0.00 79 1015.1
20260502120603 39 351 6.0 15.0 0.00 0.05 0.00 78 1015.1
20260502120104 39 335 5.0 13.0 0.00 0.05 0.00 79 1015.1
20260502115603 39 322 5.0 12.0 0.00 0.05 0.00 79 1015.1
20260502115104 39 334 6.0 14.0 0.00 0.05 0.00 81 1015.2
20260502114603 39 322 3.0 9.0 0.00 0.05 0.00 82 1015.2
20260502113603 37 343 7.0 12.0 0.00 0.05 0.00 83 1015.1
20260502113104 37 319 5.0 13.0 0.00 0.05 0.00 85 1015.1
20260502112603 36 329 3.0 8.0 0.00 0.05 0.00 86 1015.2
20260502112104 35 301 3.0 8.0 0.00 0.05 0.00 86 1015.0
20260502111603 35 344 5.0 9.0 0.00 0.05 0.00 86 1015.0
20260502111104 34 319 5.0 8.0 0.00 0.05 0.00 87 1015.0
20260502110604 34 344 3.0 7.0 0.00 0.05 0.00 87 1015.1
20260502110104 34 299 4.0 7.0 0.00 0.05 0.00 87 1015.1
20260502105604 34 325 3.0 10.0 0.00 0.05 0.00 88 1014.9
20260502104604 33 322 3.0 9.0 0.00 0.05 0.00 88 1015.0
20260502104103 33 311 4.0 7.0 0.00 0.05 0.00 88 1014.9
20260502103603 33 309 1.0 3.0 0.00 0.05 0.00 88 1014.8
20260502102603 33 302 4.0 7.0 0.00 0.05 0.00 88 1014.8
20260502102104 33 342 3.0 9.0 0.00 0.05 0.00 89 1014.7
20260502101603 33 321 4.0 9.0 0.00 0.05 0.00 89 1014.7
20260502101103 33 310 3.0 9.0 0.00 0.05 0.00 89 1014.8
20260502100104 33 318 3.0 8.0 0.00 0.05 0.00 89 1014.7
20260502091104 33 310 3.0 6.0 0.00 0.05 0.00 89 1014.4
20260502090604 33 303 2.0 5.0 0.00 0.05 0.00 88 1014.3
20260502090104 33 310 2.0 6.0 0.00 0.05 0.00 88 1014.2
20260502080104 35 336 4.0 8.0 0.00 0.05 0.00 86 1013.8
20260502070604 36 349 5.0 9.0 0.00 0.05 0.00 86 1014.0
20260502070104 36 328 3.0 8.0 0.00 0.05 0.00 86 1014.0
20260502065604 36 336 6.0 9.0 0.00 0.05 0.00 86 1014.0
20260502065104 36 320 4.0 12.0 0.00 0.05 0.00 86 1014.0
20260502064604 36 329 3.0 8.0 0.00 0.05 0.00 86 1014.0
20260502064104 35 316 3.0 6.0 0.00 0.05 0.00 86 1014.1
20260502063603 35 314 3.0 8.0 0.00 0.05 0.00 85 1014.1
20260502062605 36 309 2.0 5.0 0.00 0.05 0.00 85 1014.0
20260502062104 36 324 3.0 5.0 0.00 0.05 0.00 85 1014.0
20260502061605 36 328 2.0 3.0 0.00 0.05 0.00 85 1014.0
20260502061104 37 321 3.0 3.0 0.00 0.05 0.00 85 1014.0
20260502060604 37 330 3.0 6.0 0.00 0.05 0.00 85 1014.1
20260502060104 37 327 2.0 3.0 0.00 0.05 0.00 85 1014.1
20260502055604 37 330 1.0 3.0 0.00 0.05 0.00 85 1014.1
20260502054604 38 340 2.0 6.0 0.00 0.05 0.00 85 1014.2
20260502054104 38 351 2.0 5.0 0.00 0.05 0.00 84 1014.2
20260502053604 38 7 2.0 7.0 0.00 0.05 0.00 84 1014.2
20260502053104 38 340 3.0 6.0 0.00 0.05 0.00 84 1014.3
20260502052604 38 346 2.0 3.0 0.00 0.05 0.00 83 1014.2
20260502052104 38 341 2.0 3.0 0.00 0.05 0.00 83 1014.1
20260502051604 38 346 2.0 3.0 0.00 0.05 0.00 82 1014.1
20260502051105 38 355 1.0 3.0 0.00 0.05 0.00 82 1013.9
20260502050604 39 351 1.0 6.0 0.00 0.05 0.00 82 1013.9
20260502050104 39 27 1.0 8.0 0.00 0.05 0.00 81 1013.8
20260502045604 39 345 2.0 7.0 0.00 0.05 0.00 81 1013.8
20260502045104 39 25 5.0 12.0 0.00 0.05 0.00 81 1013.7
20260502044604 39 6 3.0 9.0 0.00 0.05 0.00 81 1013.6
20260502044105 39 0 3.0 8.0 0.00 0.05 0.00 80 1013.7
20260502043604 39 353 3.0 8.0 0.00 0.05 0.00 80 1013.6
20260502043104 39 0 6.0 12.0 0.00 0.05 0.00 79 1013.5
20260502042604 39 354 6.0 13.0 0.00 0.05 0.00 79 1013.5
20260502042103 40 355 4.0 12.0 0.00 0.05 0.00 78 1013.4
20260502041604 40 344 6.0 12.0 0.00 0.05 0.00 77 1013.4
20260502041104 40 314 6.0 12.0 0.00 0.05 0.00 76 1013.4
20260502040605 41 332 5.0 10.0 0.00 0.05 0.00 75 1013.3
20260502040104 41 327 5.0 13.0 0.00 0.05 0.00 74 1013.4
20260502035603 41 342 7.0 13.0 0.00 0.05 0.05 74 1013.4
20260502035104 41 322 5.0 14.0 0.00 0.05 0.05 73 1013.4
20260502034604 42 340 9.0 15.0 0.00 0.05 0.05 73 1013.3
20260502034103 42 353 6.0 10.0 0.00 0.05 0.05 73 1013.3
20260502033604 42 327 6.0 13.0 0.00 0.05 0.05 74 1013.3
20260502033104 42 334 6.0 14.0 0.00 0.05 0.05 76 1013.2
20260502032604 42 324 4.0 9.0 0.00 0.05 0.05 79 1013.2
20260502031604 42 309 5.0 9.0 0.00 0.05 0.05 83 1013.2
20260502031104 42 302 2.0 6.0 0.00 0.05 0.05 83 1013.2
20260502030604 42 296 3.0 8.0 0.00 0.05 0.05 83 1013.2
20260502030104 42 267 2.0 6.0 0.00 0.05 0.05 83 1013.2
20260502025604 42 290 3.0 6.0 0.00 0.05 0.05 84 1013.2
20260502024604 42 283 2.0 6.0 0.00 0.05 0.05 84 1013.2
20260502023604 42 299 3.0 6.0 0.00 0.05 0.05 84 1013.2
20260502023103 42 284 2.0 3.0 0.00 0.05 0.05 84 1013.2
20260502022604 42 306 2.0 7.0 0.00 0.05 0.05 84 1013.2
20260502022104 42 296 3.0 9.0 0.00 0.05 0.05 83 1013.1
20260502021604 42 284 2.0 7.0 0.00 0.05 0.05 83 1013.1
20260502021105 42 284 2.0 9.0 0.00 0.05 0.05 83 1013.1
20260502020603 42 272 2.0 5.0 0.00 0.05 0.05 83 1013.1
20260502020104 42 285 3.0 9.0 0.00 0.05 0.05 83 1013.1
20260502015603 42 277 3.0 6.0 0.00 0.05 0.05 83 1013.1
20260502015104 43 267 3.0 5.0 0.00 0.05 0.05 83 1013.1
20260502014603 43 278 2.0 3.0 0.00 0.05 0.05 83 1013.1
20260502014104 43 275 3.0 8.0 0.00 0.05 0.05 83 1013.1
20260502013604 43 274 4.0 8.0 0.00 0.05 0.05 83 1013.1
20260502013103 43 279 3.0 7.0 0.00 0.05 0.05 83 1013.1
20260502012104 43 290 5.0 9.0 0.00 0.05 0.05 82 1012.8
20260502011604 43 276 4.0 10.0 0.00 0.05 0.05 83 1012.8
20260502011104 44 286 5.0 12.0 0.00 0.05 0.05 83 1012.7
20260502010604 44 271 3.0 6.0 0.00 0.05 0.05 82 1012.6
20260502010104 44 274 3.0 9.0 0.00 0.05 0.05 82 1012.6
20260502005605 44 287 4.0 8.0 0.00 0.05 0.05 82 1012.5
20260502005104 44 285 3.0 7.0 0.00 0.05 0.05 81 1012.4
20260502004604 44 275 2.0 5.0 0.00 0.05 0.05 81 1012.4
20260502004103 44 272 2.0 6.0 0.00 0.05 0.05 80 1012.3
20260502003603 44 299 2.0 5.0 0.00 0.05 0.05 79 1012.3
20260502003105 45 285 3.0 6.0 0.00 0.05 0.05 78 1012.2
20260502002604 45 282 1.0 3.0 0.00 0.05 0.05 77 1012.1
20260502002105 45 295 2.0 6.0 0.00 0.05 0.05 76 1012.1
20260502001604 45 266 1.0 3.0 0.00 0.05 0.05 76 1011.9
20260502001103 45 269 1.0 3.0 0.00 0.05 0.05 75 1011.9
20260502000604 45 293 1.0 2.0 0.00 0.05 0.05 75 1011.9
20260502000104 46 296 2.0 3.0 0.00 0.05 0.05 74 1011.9
20260501235604 46 289 1.0 3.0 0.00 0.05 0.05 74 1011.8
20260501235104 46 288 2.0 3.0 0.00 0.05 0.05 74 1011.7
20260501234603 46 296 2.0 3.0 0.00 0.05 0.05 74 1011.7
20260501234104 46 263 2.0 5.0 0.00 0.05 0.05 74 1011.7
20260501233605 46 293 2.0 5.0 0.00 0.05 0.05 74 1011.6
20260501233104 46 323 3.0 6.0 0.00 0.05 0.05 74 1011.6
20260501231603 47 299 3.0 6.0 0.00 0.05 0.05 72 1011.5
20260501231103 47 317 3.0 8.0 0.00 0.05 0.05 73 1011.5
20260501225603 47 292 2.0 3.0 0.00 0.05 0.05 73 1011.5
20260501225103 47 245 1.0 3.0 0.00 0.05 0.05 73 1011.5
20260501224603 47 284 0.0 3.0 0.00 0.05 0.05 74 1011.4
20260501224102 47 291 1.0 3.0 0.00 0.05 0.05 73 1011.4
20260501223603 47 251 1.0 3.0 0.00 0.05 0.05 73 1011.4
20260501223102 47 289 2.0 3.0 0.00 0.05 0.05 73 1011.5
20260501222602 47 293 2.0 3.0 0.00 0.05 0.05 73 1011.4
20260501222104 47 299 3.0 5.0 0.00 0.05 0.05 74 1011.4
20260501221603 47 320 0.0 3.0 0.00 0.05 0.05 75 1011.4
20260501221102 47 294 2.0 3.0 0.00 0.05 0.05 75 1011.4
20260501220603 47 281 2.0 3.0 0.00 0.05 0.05 76 1011.4